GW1546 Weather Reports


Display with metric or nautical units.
time (UTC)temp
F
wind
direction
speed
MPH
gust
MPH
rain 1hr
in
rain 24hr
in
rain mn
in
humidity
%
barometer
mb
20260905185522 86 195 2.0 2.0 0.00 0.00 0.25 69 985.1
20260905185051 85 187 1.0 4.0 0.00 0.00 0.25 69 985.1
20260905184637 86 192 1.0 3.0 0.00 0.00 0.25 70 985.4
20260905184222 86 192 1.0 2.0 0.00 0.00 0.25 70 985.4
20260905183735 86 200 2.0 3.0 0.00 0.00 0.25 68 985.7
20260905183319 86 185 2.0 2.0 0.00 0.00 0.25 70 985.4
20260905182900 86 193 1.0 3.0 0.00 0.00 0.25 73 985.7
20260905182014 85 188 0.0 2.0 0.00 0.00 0.25 76 985.7
20260905181554 85 186 1.0 2.0 0.00 0.00 0.25 75 985.7
20260905181123 85 169 1.0 2.0 0.00 0.00 0.25 74 985.7
20260905180706 86 200 4.0 4.0 0.00 0.00 0.25 73 985.7
20260905175804 85 165 0.0 3.0 0.00 0.00 0.25 77 985.7
20260905175349 85 187 1.0 3.0 0.00 0.00 0.25 78 985.7
20260905174934 84 191 2.0 3.0 0.00 0.00 0.25 79 985.7
20260905174050 82 181 0.0 3.0 0.00 0.00 0.25 83 985.7
20260905173634 82 190 0.0 1.0 0.00 0.00 0.25 83 985.7
20260905173204 81 191 0.0 2.0 0.00 0.00 0.25 83 985.7
20260905172747 81 190 2.0 3.0 0.00 0.00 0.25 84 985.7
20260905171900 81 170 1.0 1.0 0.00 0.00 0.25 83 985.7
20260905171444 81 188 0.0 4.0 0.00 0.00 0.25 84 986.1
20260905170542 81 193 2.0 3.0 0.00 0.00 0.25 86 986.1
20260905170127 80 187 2.0 3.0 0.00 0.00 0.25 87 986.4
20260905165711 80 189 2.0 2.0 0.00 0.00 0.25 88 986.4
20260905165253 79 189 1.0 2.0 0.00 0.00 0.25 90 986.4
20260905164836 78 190 1.0 4.0 0.00 0.00 0.25 92 986.7
20260905164422 77 186 2.0 6.0 0.00 0.00 0.25 93 986.4
20260905163949 77 183 2.0 3.0 0.00 0.00 0.25 96 986.4
20260905163518 76 168 1.0 3.0 0.00 0.00 0.25 98 986.4
20260905163048 76 176 1.0 2.0 0.00 0.00 0.25 98 986.4
20260905162632 76 138 0.0 0.0 0.00 0.00 0.25 97 986.4
20260905162200 76 135 0.0 1.0 0.00 0.00 0.25 97 986.4
20260905161743 77 132 0.0 0.0 0.00 0.00 0.25 98 986.4
20260905161327 77 131 0.0 1.0 0.00 0.00 0.25 97 986.7
20260905160856 77 152 0.0 0.0 0.00 0.00 0.25 97 986.4
20260905160442 77 140 0.0 0.0 0.00 0.00 0.25 97 986.7
20260905160011 76 139 0.0 3.0 0.00 0.00 0.25 96 986.7
20260905155541 77 125 1.0 2.0 0.00 0.00 0.25 95 986.7
20260905154209 76 163 1.0 2.0 0.00 0.00 0.25 98 986.7
20260905153736 76 129 1.0 1.0 0.00 0.00 0.25 97 986.7
20260905153318 75 132 0.0 1.0 0.00 0.00 0.25 98 986.1
20260905152901 75 135 0.0 0.0 0.00 0.00 0.25 98 986.1
20260905152444 75 121 1.0 2.0 0.00 0.00 0.25 98 986.1
20260905152027 75 134 1.0 2.0 0.00 0.00 0.25 98 986.4
20260905151555 75 135 0.0 2.0 0.00 0.00 0.25 98 986.4
20260905151140 75 126 1.0 2.0 0.00 0.00 0.25 99 986.4
20260905150722 75 127 1.0 1.0 0.00 0.00 0.25 99 986.4
20260905150305 74 120 2.0 3.0 0.00 0.00 0.25 99 986.7
20260905145849 74 116 2.0 2.0 0.00 0.00 0.25 99 986.7
20260905145432 74 158 1.0 3.0 0.00 0.00 0.25 99 986.7
20260905145017 74 169 1.0 2.0 0.00 0.00 0.25 99 987.1
20260905144559 74 168 1.0 1.0 0.00 0.00 0.25 99 987.1
20260905144144 75 171 1.0 1.0 0.00 0.00 0.25 99 987.4
20260905143726 74 170 0.0 1.0 0.00 0.00 0.25 99 987.4
20260905143256 73 171 0.0 1.0 0.00 0.00 0.25 99 987.4
20260905142823 74 168 0.0 1.0 0.00 0.00 0.25 99 987.4
20260905142407 72 167 0.0 1.0 0.00 0.00 0.25 99 987.8
20260905141948 73 168 0.0 0.0 0.00 0.00 0.25 99 987.8
20260905141533 73 167 0.0 1.0 0.00 0.00 0.25 99 988.1
20260905140631 72 167 0.0 1.0 0.00 0.00 0.25 99 988.4
20260905140215 72 176 0.0 0.0 0.00 0.00 0.25 99 988.4
20260905135756 72 182 1.0 2.0 0.00 0.00 0.25 99 988.4
20260905135338 72 178 1.0 2.0 0.00 0.00 0.25 99 988.4
20260905134451 73 177 1.0 1.0 0.00 0.00 0.25 99 988.1
20260905134033 72 175 0.0 0.0 0.00 0.00 0.25 99 988.4
20260905133600 72 175 0.0 0.0 0.00 0.00 0.25 99 988.1
20260905133129 72 174 0.0 1.0 0.00 0.00 0.25 99 988.1
20260905132711 72 172 0.0 1.0 0.00 0.00 0.25 99 988.1
20260905131339 72 169 0.0 2.0 0.00 0.00 0.25 99 988.4
20260905130922 72 190 2.0 4.0 0.00 0.00 0.25 99 987.8
20260905130504 72 175 4.0 7.0 0.00 0.00 0.24 99 988.1
20260905130032 72 189 2.0 4.0 0.00 0.00 0.05 99 988.1
20260905125613 72 175 2.0 3.0 0.00 0.00 0.00 99 988.1
20260905124254 72 170 1.0 3.0 0.00 0.00 0.00 99 987.8
20260905123408 72 176 2.0 3.0 0.00 0.00 0.00 99 986.7
20260905122951 72 150 2.0 2.0 0.00 0.00 0.00 99 986.7
20260905122045 72 165 1.0 3.0 0.00 0.00 0.00 99 986.7
20260905121631 72 166 1.0 2.0 0.00 0.00 0.00 99 986.4
20260905121200 72 165 1.0 1.0 0.00 0.00 0.00 99 986.4
20260905120258 72 162 2.0 3.0 0.00 0.00 0.00 99 986.1
20260905114922 72 161 1.0 2.0 0.00 0.00 0.00 99 986.4
20260905114452 72 162 1.0 3.0 0.00 0.00 0.00 99 986.4
20260905114038 72 168 0.0 1.0 0.00 0.00 0.00 99 986.4
20260905113622 72 168 0.0 1.0 0.00 0.00 0.00 99 986.4
20260905113136 72 168 1.0 1.0 0.00 0.00 0.00 99 986.1
20260905112706 72 168 2.0 2.0 0.00 0.00 0.00 99 986.1
20260905112251 72 169 1.0 2.0 0.00 0.00 0.00 99 986.1
20260905111821 72 171 0.0 1.0 0.00 0.00 0.00 99 986.1
20260905111406 72 167 0.0 1.0 0.00 0.00 0.00 99 986.1
20260905110949 72 171 0.0 1.0 0.00 0.00 0.00 99 986.1
20260905110519 72 170 1.0 2.0 0.00 0.00 0.00 99 986.4
20260905110105 72 169 0.0 3.0 0.00 0.00 0.00 99 986.1
20260905105634 72 162 2.0 2.0 0.00 0.00 0.00 99 986.1
20260905105147 72 172 0.0 1.0 0.00 0.00 0.00 99 986.1
20260905104731 72 174 1.0 1.0 0.00 0.00 0.00 99 986.1
20260905104315 72 170 0.0 1.0 0.00 0.00 0.00 99 986.1
20260905103859 72 168 0.0 1.0 0.00 0.00 0.00 99 986.1
20260905103427 72 172 0.0 1.0 0.00 0.00 0.00 99 986.1
20260905103012 72 172 0.0 1.0 0.00 0.00 0.00 99 986.1
20260905102542 72 173 0.0 2.0 0.00 0.00 0.00 99 986.1
20260905102127 72 175 0.0 1.0 0.00 0.00 0.00 99 986.1
20260905101657 72 173 0.0 1.0 0.00 0.00 0.00 99 986.1
20260905100256 72 172 0.0 1.0 0.00 0.00 0.00 99 985.7
20260905095838 72 172 0.0 1.0 0.00 0.00 0.00 99 986.1
20260905095420 72 171 0.0 1.0 0.00 0.00 0.00 99 986.1
20260905094101 72 172 1.0 2.0 0.00 0.00 0.00 99 986.1
20260905093644 72 177 1.0 2.0 0.00 0.00 0.00 99 985.7
20260905093229 72 173 1.0 2.0 0.00 0.00 0.00 99 986.1
20260905092812 72 177 1.0 2.0 0.00 0.00 0.00 99 985.7
20260905091455 72 172 1.0 2.0 0.00 0.00 0.00 99 986.1
20260905091041 72 170 2.0 2.0 0.00 0.00 0.00 99 986.1
20260905090626 72 172 1.0 2.0 0.00 0.00 0.00 99 986.1
20260905090157 71 173 1.0 1.0 0.00 0.00 0.00 99 985.7
20260905085744 71 175 1.0 3.0 0.00 0.00 0.00 99 985.7
20260905085329 72 179 2.0 2.0 0.00 0.00 0.00 99 985.7
20260905084859 71 176 1.0 2.0 0.00 0.00 0.00 99 986.1
20260905084445 71 165 3.0 3.0 0.00 0.00 0.00 99 985.7
20260905084028 71 175 2.0 3.0 0.00 0.00 0.00 99 985.7
20260905083559 71 172 1.0 2.0 0.00 0.00 0.00 99 985.7
20260905083144 72 179 1.0 2.0 0.00 0.00 0.00 99 985.7
20260905082727 71 173 1.0 2.0 0.00 0.00 0.00 99 986.1
20260905082311 71 176 1.0 2.0 0.00 0.00 0.00 99 986.1
20260905081854 71 173 1.0 1.0 0.00 0.00 0.00 99 986.1
20260905081438 71 174 1.0 2.0 0.00 0.00 0.00 99 986.1
20260905081020 71 177 2.0 3.0 0.00 0.00 0.00 99 986.1
20260905080131 71 171 1.0 3.0 0.00 0.00 0.00 99 986.1
20260905075714 71 169 2.0 4.0 0.00 0.00 0.00 99 986.1
20260905074825 71 177 1.0 2.0 0.00 0.00 0.00 99 986.1
20260905073934 71 177 0.0 0.0 0.00 0.00 0.00 99 986.1
20260905073032 71 176 0.0 0.0 0.00 0.00 0.00 99 986.7
20260905072618 71 175 0.0 0.0 0.00 0.00 0.00 99 986.7
20260905071301 71 176 0.0 0.0 0.00 0.00 0.00 99 986.7
20260905070830 71 171 0.0 0.0 0.00 0.00 0.00 99 986.7
20260905070414 71 175 0.0 0.0 0.00 0.00 0.00 99 986.7
20260905070000 71 170 0.0 0.0 0.00 0.00 0.00 99 986.7
20260905065544 71 172 0.0 0.0 0.00 0.00 0.00 99 986.7
20260905065129 71 174 0.0 0.0 0.00 0.00 0.00 99 986.7
20260905064713 71 173 0.0 0.0 0.00 0.00 0.00 99 986.7
20260905064257 71 179 0.0 0.0 0.00 0.00 0.00 99 987.1
20260905063841 71 174 0.0 0.0 0.00 0.00 0.00 99 987.1
20260905063426 71 173 0.0 0.0 0.00 0.00 0.00 99 987.1
20260905062509 71 184 0.0 0.0 0.00 0.00 0.00 99 987.4
20260905062037 71 171 0.0 0.0 0.00 0.00 0.00 99 987.4
20260905061621 71 179 0.0 0.0 0.00 0.00 0.00 99 987.4
20260905061204 71 173 0.0 0.0 0.00 0.00 0.00 99 987.4
20260905060746 71 171 0.0 0.0 0.00 0.00 0.00 99 987.4
20260905060329 71 173 0.0 0.0 0.00 0.00 0.00 99 987.4
20260905055912 71 174 0.0 0.0 0.00 0.00 0.00 99 987.4
20260905055456 71 178 0.0 0.0 0.00 0.00 0.00 99 987.8
20260905055041 71 176 0.0 0.0 0.00 0.00 0.00 99 987.8
20260905054625 71 169 0.0 0.0 0.00 0.00 0.00 99 987.8
20260905054210 71 173 0.0 0.0 0.00 0.00 0.00 99 987.8
20260905053753 71 174 0.0 0.0 0.00 0.00 0.00 99 988.1
20260905053323 71 176 0.0 0.0 0.00 0.00 0.00 99 987.8
20260905052851 72 173 0.0 0.0 0.00 0.00 0.00 99 987.8
20260905052436 72 174 0.0 0.0 0.00 0.00 0.00 99 987.8
20260905052020 72 181 0.0 0.0 0.00 0.00 0.00 99 988.4
20260905051549 72 172 0.0 0.0 0.00 0.00 0.00 99 988.1
20260905051120 72 176 0.0 0.0 0.00 0.00 0.00 99 988.1
20260905050219 72 173 0.0 0.0 0.00 0.00 0.00 99 988.1
20260905045802 72 173 0.0 0.0 0.00 0.00 0.00 99 988.1
20260905045346 72 166 0.0 0.0 0.00 0.00 0.00 99 988.1
20260905044915 72 173 0.0 0.0 0.00 0.00 0.00 99 988.1
20260905044444 72 174 0.0 0.0 0.00 0.00 0.00 99 988.4
20260905044028 72 173 0.0 0.0 0.00 0.00 0.00 99 988.4
20260905043614 72 171 0.0 0.0 0.00 0.00 0.00 99 987.8
20260905043158 72 176 0.0 0.0 0.00 0.00 0.00 99 987.8
20260905042743 72 173 0.0 0.0 0.00 0.00 0.00 99 988.1
20260905042257 72 174 0.0 0.0 0.00 0.00 0.00 99 988.1
20260905041840 72 177 0.0 0.0 0.00 0.00 0.00 99 987.8
20260905041409 72 177 0.0 0.0 0.00 0.00 0.00 99 988.1
20260905040950 72 176 0.0 0.0 0.00 0.00 0.00 99 988.4
20260905040534 73 173 0.0 0.0 0.00 0.00 0.00 99 987.8
20260905040103 73 174 0.0 0.0 0.00 0.00 0.00 99 988.1
20260905035632 73 176 0.0 0.0 0.00 0.00 0.09 99 988.1
20260905035216 73 174 0.0 0.0 0.00 0.00 0.09 99 988.1
20260905034800 73 180 0.0 0.0 0.00 0.00 0.09 99 988.1
20260905034344 73 177 0.0 0.0 0.00 0.00 0.09 99 988.1
20260905033927 73 174 0.0 0.0 0.00 0.00 0.09 99 988.1
20260905033510 73 169 0.0 0.0 0.00 0.00 0.09 99 987.8
20260905033051 73 170 0.0 0.0 0.00 0.00 0.09 99 988.1
20260905032635 73 174 0.0 0.0 0.00 0.00 0.09 99 987.8
20260905032204 73 174 0.0 0.0 0.00 0.00 0.09 99 987.8
20260905031730 73 174 0.0 0.0 0.00 0.00 0.09 99 987.8
20260905031312 73 173 0.0 0.0 0.00 0.00 0.09 99 987.4
20260905030842 73 178 0.0 0.0 0.00 0.00 0.09 99 987.8
20260905025938 73 172 0.0 0.0 0.00 0.00 0.09 99 987.8
20260905025522 73 175 0.0 0.0 0.00 0.00 0.09 99 987.8
20260905025106 73 173 0.0 0.0 0.00 0.00 0.09 99 987.8
20260905024650 73 173 0.0 0.0 0.00 0.00 0.09 99 987.8
20260905023747 74 175 0.0 0.0 0.00 0.00 0.09 99 987.8
20260905022411 74 174 0.0 0.0 0.00 0.00 0.09 99 987.8
20260905021938 74 171 0.0 0.0 0.00 0.00 0.09 99 987.8
20260905021521 74 172 0.0 0.0 0.00 0.00 0.09 99 987.8
20260905021104 74 174 0.0 0.0 0.00 0.00 0.09 99 987.8
20260905020649 74 175 0.0 0.0 0.00 0.00 0.09 99 987.8
20260905020234 74 175 0.0 0.0 0.00 0.00 0.09 99 987.8
20260905015818 74 175 0.0 0.0 0.00 0.00 0.09 99 987.8
20260905014931 74 173 0.0 0.0 0.00 0.00 0.09 99 988.1
20260905014459 74 172 0.0 0.0 0.00 0.00 0.09 99 987.8
20260905014044 74 171 0.0 0.0 0.00 0.00 0.09 99 987.8
20260905013629 74 172 0.0 0.0 0.00 0.00 0.09 99 987.8
20260905013212 74 170 0.0 0.0 0.00 0.00 0.09 99 987.4
20260905012741 74 170 0.0 0.0 0.00 0.00 0.09 99 987.4
20260905012323 74 172 0.0 0.0 0.00 0.00 0.09 99 987.1
20260905011907 75 171 0.0 0.0 0.00 0.00 0.09 99 987.4
20260905011449 75 171 0.0 0.0 0.00 0.00 0.09 99 987.1
20260905010544 75 173 0.0 0.0 0.00 0.00 0.09 99 986.7
20260905010128 75 173 0.0 0.0 0.00 0.00 0.09 99 986.7
20260905005711 75 171 0.0 0.0 0.00 0.00 0.09 99 986.4
20260905005255 75 171 0.0 0.0 0.00 0.00 0.09 99 986.1
20260905004824 75 173 0.0 0.0 0.00 0.00 0.09 99 986.1
20260905004407 75 171 0.0 0.0 0.00 0.00 0.09 99 985.7
20260905003950 75 171 0.0 0.0 0.00 0.00 0.09 99 985.7
20260905003104 76 169 0.0 0.0 0.00 0.00 0.09 99 985.7
20260905002648 76 172 0.0 0.0 0.00 0.00 0.09 99 985.4
20260905002231 76 171 0.0 0.0 0.00 0.00 0.09 99 985.4
20260905001817 76 171 0.0 0.0 0.00 0.00 0.09 99 985.7
20260905001400 76 170 0.0 0.0 0.00 0.00 0.09 99 985.7
20260905000943 76 171 0.0 0.0 0.00 0.00 0.09 99 985.7
20260905000525 76 172 0.0 0.0 0.00 0.00 0.09 99 986.1
20260905000105 76 143 0.0 0.0 0.00 0.00 0.09 99 985.7
20260904235217 76 144 0.0 0.0 0.00 0.00 0.09 99 986.4
20260904234801 76 144 0.0 0.0 0.00 0.00 0.09 99 986.4
20260904234331 77 145 0.0 0.0 0.00 0.00 0.09 99 986.7
20260904233914 77 145 0.0 0.0 0.00 0.00 0.09 99 986.7
20260904233443 77 145 0.0 0.0 0.00 0.00 0.09 99 986.7
20260904233012 77 145 0.0 0.0 0.00 0.00 0.09 99 987.1
20260904232111 78 145 0.0 0.0 0.00 0.00 0.09 99 987.1
20260904231654 78 146 0.0 0.0 0.00 0.00 0.09 99 987.1
20260904231223 78 146 0.0 0.0 0.00 0.00 0.09 99 987.1
20260904230752 78 146 0.0 0.0 0.00 0.00 0.09 98 987.1
20260904225849 78 146 0.0 0.0 0.00 0.00 0.09 98 987.4
20260904225432 78 146 0.0 0.0 0.00 0.00 0.09 98 987.8
20260904225016 79 162 0.0 0.0 0.00 0.00 0.09 98 987.4
20260904224529 79 150 0.0 0.0 0.00 0.00 0.09 98 987.4
20260904223153 79 170 0.0 0.0 0.00 0.00 0.09 98 987.8
20260904222736 79 151 0.0 0.0 0.00 0.00 0.09 98 987.4
20260904222319 79 149 0.0 0.0 0.00 0.00 0.09 98 987.8
20260904221902 79 163 0.0 0.0 0.00 0.00 0.09 98 987.8
20260904220943 79 164 0.0 0.0 0.00 0.00 0.09 97 987.8
20260904220523 80 175 0.0 0.0 0.00 0.00 0.09 97 987.8
20260904215646 80 161 0.0 0.0 0.00 0.00 0.09 97 988.1
20260904215229 80 158 0.0 0.0 0.00 0.00 0.09 97 988.1
20260904214755 80 144 0.0 0.0 0.00 0.00 0.09 97 988.4
20260904214339 80 144 0.0 0.0 0.00 0.00 0.09 96 988.8
20260904213902 80 144 0.0 0.0 0.00 0.00 0.09 96 988.1
20260904213446 80 151 0.0 0.0 0.00 0.00 0.09 96 988.1
20260904213013 80 151 0.0 0.0 0.00 0.00 0.09 95 987.8
20260904212556 80 152 0.0 0.0 0.00 0.00 0.09 95 987.8
20260904212140 81 153 0.0 0.0 0.00 0.00 0.09 95 987.8
20260904211708 81 153 0.0 0.0 0.00 0.00 0.09 95 987.4
20260904211236 81 153 0.0 0.0 0.00 0.00 0.09 94 987.8
20260904210331 81 154 0.0 0.0 0.00 0.00 0.09 95 987.4
20260904205914 80 164 0.0 0.0 0.00 0.00 0.09 95 987.4
20260904204554 79 150 0.0 0.0 0.00 0.00 0.09 97 987.8
20260904204137 80 151 0.0 0.0 0.00 0.00 0.09 97 987.4
20260904203650 80 151 0.0 0.0 0.00 0.00 0.09 97 987.4
20260904202801 80 155 0.0 0.0 0.00 0.00 0.09 95 987.4
20260904202346 80 155 0.0 0.0 0.00 0.00 0.09 94 987.8
20260904201928 81 154 0.0 0.0 0.00 0.00 0.09 95 987.4
20260904201512 81 160 0.0 0.0 0.00 0.00 0.09 95 987.8
20260904200606 81 174 0.0 0.0 0.00 0.00 0.09 95 987.8
20260904195715 80 169 0.0 0.0 0.00 0.00 0.09 96 987.8
20260904195241 80 158 0.0 0.0 0.00 0.00 0.09 96 987.8
20260904194810 81 165 0.0 0.0 0.00 0.00 0.09 96 987.8
20260904194337 81 160 0.0 0.0 0.00 0.00 0.09 97 988.1
20260904193917 80 174 0.0 0.0 0.00 0.00 0.09 99 988.1
20260904192958 78 181 0.0 0.0 0.00 0.00 0.09 99 987.8
20260904192545 79 162 0.0 0.0 0.00 0.00 0.09 99 988.1
20260904192114 79 162 0.0 0.0 0.00 0.00 0.09 99 987.8
20260904191643 79 152 0.0 0.0 0.00 0.00 0.09 98 988.1
20260904191208 81 161 0.0 0.0 0.00 0.00 0.09 97 988.4
20260904190752 81 159 0.0 0.0 0.00 0.00 0.05 96 988.4
20260904190323 81 139 0.0 0.0 0.00 0.00 0.01 95 988.4
20260904185852 82 136 0.0 0.0 0.00 0.00 0.01 95 988.1